Regional Weather Roundup
Issued by NWS

Home | Current Version | Previous Version | Text Only | Print | Product List | Glossary Off
Versions: 1 2 3 4 5 6 7 8 9 10 11 12 13 14 15 16 17 18 19 20 21 22 23 24 25 26 27 28 29 30 31 32 33 34 35 36 37 38 39 40 41 42 43 44 45 46 47 48 49 50

000
ASUS43 KDTX 291310
RWRMI
MICHIGAN HOURLY REGIONAL WEATHER ROUNDUP
NATIONAL WEATHER SERVICE DETROIT/PONTIAC MI
900 AM EDT TUE JUL 29 2014

NOTE: "FAIR" INDICATES FEW OR NO CLOUDS BELOW 12,000 FEET WITH NO
SIGNIFICANT WEATHER AND/OR OBSTRUCTION TO VISIBILITY.

MIZ047>049-052>055-059>063-066>070-074>076-081>083-291400-
SOUTHEAST LOWER MICHIGAN

CITY           SKY/WX    TMP DP  RH WIND       PRES   REMARKS
ADRIAN         SUNNY     56  50  80 W6        30.04R
ALMA           CLOUDY    56  53  90 SW5       30.00S
ANN ARBOR      SUNNY     60  49  66 W9        30.01S
BAD AXE        CLOUDY    56  55  93 W5        29.97R
DETROIT CITY   SUNNY     62  48  60 W5        30.00S
DETROIT        SUNNY     59  50  72 W3        30.01S
FLINT          MOSUNNY   59  50  72 SW7       29.99F
GROSSE ILE     SUNNY     59  50  72 W6        30.00S
HILLSDALE      MOSUNNY   58  55  88 CALM      30.04R
HOWELL         PTSUNNY   55  51  87 SW5       30.01S

CITY           SKY/WX    TMP DP  RH WIND       PRES   REMARKS
JACKSON        SUNNY     57  52  83 W6        30.02S
LAMBERTVILLE   SUNNY     59  50  72 W6        30.03R
LANSING        CLOUDY    56  50  80 W7        30.02R
LAPEER         NOT AVBL
MASON          MOSUNNY   56  51  82 W8        30.02R
MONROE         SUNNY     57  52  82 W5        30.01R
MT. CLEMENS    SUNNY     61  49  65 W6        29.98S
PONTIAC        MOSUNNY   58  49  72 W12       30.00S
PORT HOPE        N/A     59  53  80 VRB6      29.94R
PORT HURON     SUNNY     57  52  82 W5        29.98F
TRI CITIES     PTSUNNY   58  52  80 W9        29.98F
YPSILANTI      SUNNY     63  50  62 NW6       30.02R
$$
MIZ043>046-050>051-056>058-064>065-071>073-077>080-291400-
SOUTHWEST LOWER MICHIGAN

CITY           SKY/WX    TMP DP  RH WIND       PRES   REMARKS
BATTLE CREEK   CLOUDY    56  51  84 SW5       30.04R
BENTON HARBOR  PTSUNNY   59  55  87 S5        30.02F
BIG RAPIDS     PTSUNNY   58  58 100 W7        29.99R
COLDWATER      PTSUNNY   56  53  88 W3        30.04S
HOLLAND        MOSUNNY   63  57  81 SW8       30.02R
GRAND RAPIDS   CLOUDY    59  54  83 SW5       30.01S
KALAMAZOO      CLOUDY    56  50  80 CALM      30.05R
MARSHALL       CLOUDY    54  51  89 SW3       30.03S
MUSKEGON       PTSUNNY   61  54  77 W6        30.01R
$$
MIZ016>042-291400-
NORTHERN LOWER MICHIGAN

CITY           SKY/WX    TMP DP  RH WIND       PRES   REMARKS
ALPENA         CLOUDY    58  55  90 W7        29.92S
BEAVER ISLAND  CLOUDY    56  56 100 W7        29.96S FOG
BELLAIRE       CLOUDY    61  56  82 W7        29.95S
CADILLAC       CLOUDY    56  54  92 SW3       29.97S
CHARLEVOIX     PTSUNNY   61  58  90 NW8       29.98S
FRANKFORT      PTSUNNY   59  55  84 CALM      29.98S
GAYLORD        CLOUDY    57  54  89 W7        29.95S
GRAYLING       CLOUDY    56  54  92 W5        29.96S
HARBOR SPRINGS MOSUNNY   62  56  80 NW8       29.94R
HOUGHTON LAKE  CLOUDY    57  52  83 W8        29.97R
MANISTEE       PTSUNNY   54  52  94 CALM      30.00R
OSCODA           N/A    N/A N/A N/A MISG        N/A
PELLSTON       CLOUDY    59  55  87 W12       29.94R
TRAVERSE CITY  CLOUDY    61  54  77 VRB5      29.96R
$$
MIZ007>008-015-291400-
EASTERN UPPER MICHIGAN

CITY           SKY/WX    TMP DP  RH WIND       PRES   REMARKS
KINROSS        CLOUDY    54  52  94 NW6       29.93S
MACKINAC ISLAN CLOUDY    56  55  96 N8        29.93R
NEWBERRY       CLOUDY    54  53  96 N8        29.94S
S. S. MARIE    CLOUDY    55  51  86 NW8       29.92S
$$
MIZ004>006-011>014-085-291400-
CENTRAL UPPER MICHIGAN

CITY           SKY/WX    TMP DP  RH WIND       PRES   REMARKS
MANISTIQUE     CLOUDY    57  55  91 NW7       29.96S
ESCANABA       MOSUNNY   59  52  77 NW6       29.98S
MENOMINEE      MOSUNNY   61  54  77 NW7       30.00R
SAWYER-GWINN   PTSUNNY   59  54  82 NW8       29.99R
$$
MIZ001>003-009>011-084-291400-
WESTERN UPPER MICHIGAN

CITY           SKY/WX    TMP DP  RH WIND       PRES   REMARKS
IRON MOUNTAIN  MOSUNNY   59  52  77 NW8       30.00R
COPPER HARBOR    N/A     59  53  80 N13       29.97S
IRONWOOD       PTSUNNY   57  55  94 W7        30.04S
$$

ABBREVIATIONS USED IN REMARKS
   TC - TEMPERATURE IN CELSIUS
  WCI - WIND CHILL INDEX
   HX - HEAT INDEX
  VSB - VISIBILITY



USA.gov is the U.S. government's official web portal to all federal, state and local government web resources and services.